BAW8DS KLAX-EGLL

Flight info

Callsign BAW8DS
Flight time N/A
Altitude 35000
Route ORCKA5 LAS Q70 BLIPP Q842 WINEN DCT DTA DCT FFU DCT RECAP DCT DIK Q945 SEGAP DCT KAIIN/N0488F370 DCT 56N090W 60N082W 65N070W/M082F370 DCT DARUB DCT 67N050W/M083F390 67N040W 65N030W 63N020W DCT BALIX/N0474F390 DCT NINEX DCT AKOMU DCT VAMEB DCT NUGRA NUGRA2H
Aircraft B77W/H-SDE1E3FGHIJ3J4J5J6M1M2P2RWXYZ/LB1D1

Departure

Time 2026-05-03 23:45
Airport Los Angeles International Airport (KLAX)

Arrival

Time N/A
Airport London Heathrow Airport (EGLL)
Time Latitude Longitude Altitude Speed Heading
2026-05-03 23:01 33.94022 -118.40932 109 ft 0 kts 263°
2026-05-03 23:34 33.94023 -118.40925 100 ft 4 kts 263°
2026-05-03 23:34 33.94026 -118.40895 101 ft 2 kts 263°
2026-05-03 23:35 33.94030 -118.40868 99 ft 4 kts 248°
2026-05-03 23:35 33.94042 -118.40845 98 ft 4 kts 220°
2026-05-03 23:35 33.94059 -118.40832 98 ft 4 kts 184°
2026-05-03 23:35 33.94068 -118.40832 99 ft 3 kts 173°
2026-05-03 23:36 33.94041 -118.40828 99 ft 4 kts 173°
2026-05-03 23:36 33.94014 -118.40824 102 ft 4 kts 173°
2026-05-03 23:36 33.94008 -118.40823 101 ft 0 kts 173°
2026-05-03 23:39 33.93975 -118.40818 101 ft 14 kts 172°
2026-05-03 23:39 33.93885 -118.40771 104 ft 14 kts 137°
2026-05-03 23:40 33.93815 -118.40675 108 ft 16 kts 98°
2026-05-03 23:40 33.93824 -118.40538 107 ft 16 kts 83°
2026-05-03 23:40 33.93837 -118.40401 108 ft 16 kts 83°
2026-05-03 23:40 33.93851 -118.40265 109 ft 17 kts 83°
2026-05-03 23:41 33.93868 -118.40101 108 ft 24 kts 82°
2026-05-03 23:41 33.93891 -118.39877 109 ft 27 kts 83°
2026-05-03 23:41 33.93914 -118.39653 108 ft 27 kts 82°
2026-05-03 23:41 33.93937 -118.39429 107 ft 27 kts 83°
2026-05-03 23:42 33.93961 -118.39205 107 ft 27 kts 83°
2026-05-03 23:42 33.93982 -118.38981 107 ft 27 kts 84°
2026-05-03 23:42 33.94005 -118.38760 107 ft 27 kts 82°
2026-05-03 23:42 33.94028 -118.38536 108 ft 27 kts 83°
2026-05-03 23:43 33.94051 -118.38312 108 ft 27 kts 83°
2026-05-03 23:43 33.94073 -118.38097 107 ft 20 kts 83°
2026-05-03 23:43 33.94041 -118.38005 110 ft 13 kts 154°
2026-05-03 23:43 33.93992 -118.38019 110 ft 6 kts 236°
2026-05-03 23:44 33.93977 -118.38097 115 ft 20 kts 261°
2026-05-03 23:44 33.93934 -118.38519 113 ft 86 kts 263°
2026-05-03 23:44 33.93832 -118.39501 112 ft 148 kts 263°
2026-05-03 23:44 33.93687 -118.40906 236 ft 181 kts 262°
2026-05-03 23:45 33.93555 -118.42409 823 ft 181 kts 264°
2026-05-03 23:45 33.93451 -118.43957 1364 ft 190 kts 262°
2026-05-03 23:45 33.93280 -118.45553 1982 ft 192 kts 261°
2026-05-03 23:45 33.92925 -118.47164 2269 ft 210 kts 249°
2026-05-03 23:46 33.92356 -118.48893 2541 ft 229 kts 248°
2026-05-03 23:46 33.91739 -118.50678 3152 ft 236 kts 246°
2026-05-03 23:46 33.91066 -118.52519 3618 ft 246 kts 246°
2026-05-03 23:46 33.90379 -118.54414 4400 ft 246 kts 246°
2026-05-03 23:47 33.89668 -118.56316 4913 ft 252 kts 241°
2026-05-03 23:47 33.88558 -118.57946 4973 ft 254 kts 214°
2026-05-03 23:47 33.86932 -118.58695 4997 ft 256 kts 186°
2026-05-03 23:47 33.85160 -118.58417 5284 ft 264 kts 159°
2026-05-03 23:48 33.83595 -118.57217 5947 ft 273 kts 137°
2026-05-03 23:48 33.82597 -118.55250 6515 ft 282 kts 109°
2026-05-03 23:48 33.82414 -118.52878 7014 ft 288 kts 91°
2026-05-03 23:48 33.82897 -118.50530 7437 ft 296 kts 58°
2026-05-03 23:49 33.84352 -118.48812 8156 ft 296 kts 34°
2026-05-03 23:49 33.86151 -118.47615 8675 ft 303 kts 24°
2026-05-03 23:49 33.88073 -118.46568 9431 ft 304 kts 24°
2026-05-03 23:49 33.90040 -118.45485 10034 ft 310 kts 25°
2026-05-03 23:50 33.91967 -118.44317 10399 ft 322 kts 33°
2026-05-03 23:50 33.93205 -118.43198 10516 ft 337 kts 43°
2026-05-03 23:50 33.95273 -118.40221 10758 ft 365 kts 58°
2026-05-03 23:50 33.96677 -118.37563 10984 ft 386 kts 59°
2026-05-03 23:51 33.98158 -118.34763 11576 ft 397 kts 58°
2026-05-03 23:51 33.99683 -118.32003 12309 ft 404 kts 57°
2026-05-03 23:51 34.01272 -118.29190 13184 ft 408 kts 57°
2026-05-03 23:51 34.02889 -118.26344 14006 ft 414 kts 57°
2026-05-03 23:52 34.04533 -118.23450 14692 ft 421 kts 57°
2026-05-03 23:52 34.06187 -118.20516 15248 ft 428 kts 56°
2026-05-03 23:52 34.07891 -118.17516 15816 ft 437 kts 56°
2026-05-03 23:52 34.09627 -118.14467 16522 ft 444 kts 56°
2026-05-03 23:53 34.11378 -118.11373 17264 ft 450 kts 56°
2026-05-03 23:53 34.13150 -118.08230 17946 ft 457 kts 55°
2026-05-03 23:53 34.14953 -118.05029 18546 ft 465 kts 55°
2026-05-03 23:53 34.16783 -118.01779 19095 ft 472 kts 55°
2026-05-03 23:54 34.18639 -117.98480 19675 ft 478 kts 54°
2026-05-03 23:54 34.20518 -117.95135 20228 ft 485 kts 55°
2026-05-03 23:54 34.22399 -117.91735 20647 ft 491 kts 53°
2026-05-03 23:54 34.24366 -117.88294 21040 ft 500 kts 55°
2026-05-03 23:55 34.26273 -117.84775 21597 ft 502 kts 56°
2026-05-03 23:55 34.28197 -117.81230 22000 ft 508 kts 54°
2026-05-03 23:55 34.30228 -117.77690 22429 ft 516 kts 53°
2026-05-03 23:55 34.32312 -117.74127 22841 ft 522 kts 53°
2026-05-03 23:56 34.34340 -117.70447 23353 ft 527 kts 54°
2026-05-03 23:56 34.36406 -117.66777 23914 ft 530 kts 52°
2026-05-03 23:56 34.38558 -117.63136 24370 ft 533 kts 51°
2026-05-03 23:56 34.40756 -117.59501 24774 ft 538 kts 51°
2026-05-03 23:57 34.42984 -117.55835 25236 ft 542 kts 51°
2026-05-03 23:57 34.45218 -117.52142 25695 ft 545 kts 51°
2026-05-03 23:57 34.47453 -117.48421 26182 ft 548 kts 51°
2026-05-03 23:57 34.49694 -117.44665 26627 ft 552 kts 51°
2026-05-03 23:58 34.51948 -117.40873 27060 ft 556 kts 51°
2026-05-03 23:58 34.54211 -117.37055 27497 ft 559 kts 51°
2026-05-03 23:58 34.56486 -117.33209 27922 ft 562 kts 51°
2026-05-03 23:58 34.58774 -117.29342 28308 ft 566 kts 51°
2026-05-03 23:59 34.61076 -117.25448 28677 ft 569 kts 51°
2026-05-03 23:59 34.63388 -117.21534 29045 ft 572 kts 51°
2026-05-03 23:59 34.65714 -117.17593 29387 ft 575 kts 51°
2026-05-03 23:59 34.68044 -117.13641 29802 ft 576 kts 51°
2026-05-04 00:00 34.70369 -117.09691 30257 ft 575 kts 51°
2026-05-04 00:00 34.72693 -117.05737 30646 ft 573 kts 50°
2026-05-04 00:00 34.75009 -117.01794 31012 ft 574 kts 50°
2026-05-04 00:00 34.77329 -116.97842 31377 ft 574 kts 50°
2026-05-04 00:01 34.79652 -116.93880 31779 ft 574 kts 50°
2026-05-04 00:01 34.81936 -116.89980 32164 ft 574 kts 50°
2026-05-04 00:01 34.84246 -116.86030 32572 ft 572 kts 51°
2026-05-04 00:01 34.86583 -116.82029 32984 ft 571 kts 50°
2026-05-04 00:02 34.88852 -116.78142 33356 ft 571 kts 50°
2026-05-04 00:02 34.91157 -116.74213 33719 ft 570 kts 49°
2026-05-04 00:02 34.93615 -116.70446 34029 ft 565 kts 43°
2026-05-04 00:02 34.96257 -116.66918 34383 ft 562 kts 41°
2026-05-04 00:03 34.98929 -116.63453 34747 ft 559 kts 41°
2026-05-04 00:03 35.01606 -116.60007 34794 ft 562 kts 41°
2026-05-04 00:03 35.06955 -116.53065 34788 ft 559 kts 42°
2026-05-04 00:04 35.12211 -116.46134 34784 ft 554 kts 42°
2026-05-04 00:04 35.17425 -116.39213 34786 ft 553 kts 42°
2026-05-04 00:05 35.22624 -116.32305 34780 ft 552 kts 42°
2026-05-04 00:05 35.27827 -116.25384 34766 ft 552 kts 42°
2026-05-04 00:06 35.33028 -116.18453 34742 ft 553 kts 42°
2026-05-04 00:06 35.38232 -116.11504 34755 ft 554 kts 42°
2026-05-04 00:07 35.43442 -116.04530 34756 ft 554 kts 43°
2026-05-04 00:07 35.48647 -115.97548 34770 ft 555 kts 43°
2026-05-04 00:08 35.53878 -115.90519 34785 ft 561 kts 42°
2026-05-04 00:08 35.59163 -115.83401 34796 ft 567 kts 43°
2026-05-04 00:09 35.63595 -115.77418 34795 ft 571 kts 43°
2026-05-04 00:09 35.68924 -115.70137 34789 ft 571 kts 43°
2026-05-04 00:10 35.74170 -115.62896 34791 ft 563 kts 43°
2026-05-04 00:10 35.79388 -115.55696 34814 ft 565 kts 43°
2026-05-04 00:11 35.84632 -115.48459 34804 ft 567 kts 43°
2026-05-04 00:11 35.89881 -115.41200 34802 ft 568 kts 43°
2026-05-04 00:12 35.95138 -115.33909 34800 ft 569 kts 43°
2026-05-04 00:12 36.00398 -115.26597 34795 ft 570 kts 43°
2026-05-04 00:13 36.05626 -115.19316 34769 ft 570 kts 43°
2026-05-04 00:13 36.11157 -115.12397 34773 ft 562 kts 34°
2026-05-04 00:14 36.17083 -115.06114 34705 ft 561 kts 33°
2026-05-04 00:14 36.23020 -114.99833 34705 ft 561 kts 34°
2026-05-04 00:15 36.28949 -114.93440 34708 ft 562 kts 34°
2026-05-04 00:15 36.34845 -114.87037 34693 ft 563 kts 34°
2026-05-04 00:16 36.40738 -114.80639 34679 ft 563 kts 34°
2026-05-04 00:16 36.46631 -114.74225 34663 ft 563 kts 34°
2026-05-04 00:17 36.52477 -114.67839 34666 ft 564 kts 34°
2026-05-04 00:17 36.58406 -114.61346 34666 ft 565 kts 34°
2026-05-04 00:18 36.64266 -114.54917 34661 ft 565 kts 34°
2026-05-04 00:18 36.70184 -114.48468 34670 ft 563 kts 32°
2026-05-04 00:19 36.76519 -114.42946 34687 ft 552 kts 23°
2026-05-04 00:19 36.83065 -114.37927 34700 ft 552 kts 23°
2026-05-04 00:20 36.89601 -114.32895 34702 ft 552 kts 24°
2026-05-04 00:20 36.96118 -114.27788 34716 ft 553 kts 24°
2026-05-04 00:21 37.02617 -114.22654 34727 ft 553 kts 24°
2026-05-04 00:21 37.09118 -114.17509 34736 ft 552 kts 24°
2026-05-04 00:22 37.15605 -114.12369 34749 ft 552 kts 25°
2026-05-04 00:22 37.22079 -114.07230 34748 ft 546 kts 25°
2026-05-04 00:23 37.28454 -114.02154 34773 ft 540 kts 25°
2026-05-04 00:23 37.34774 -113.97121 34787 ft 536 kts 25°
2026-05-04 00:24 37.41064 -113.92103 34778 ft 535 kts 25°
2026-05-04 00:24 37.47340 -113.87084 34787 ft 534 kts 26°
2026-05-04 00:25 37.53601 -113.82067 34814 ft 533 kts 26°
2026-05-04 00:25 37.59867 -113.77035 34833 ft 534 kts 26°
2026-05-04 00:26 37.66089 -113.72026 34817 ft 534 kts 26°
2026-05-04 00:26 37.72397 -113.66938 34817 ft 534 kts 27°
2026-05-04 00:27 37.78608 -113.61918 34815 ft 534 kts 27°
2026-05-04 00:27 37.84864 -113.56851 34817 ft 533 kts 27°